www.pogodaiklimat.ru

Погода и климат >> Архив погоды >> Беларусь >> Барановичи


АРХИВ ПОГОДЫ в Барановичах

Время (UTC), дата Ветер
(напр.,м/с)
 
Видим.   Явления Облачность Т
(С)
Тd
(С)
f
(%)
Тe
(С)
Тes
(С)
Комфортность P
(гПа)
Po
(гПа)
Тmin
(С)
Tmax
(С)
R
(мм)
R24
(мм)
S
(см)
03 14.06 штиль 0 10 км 8/8 1000 м
[Sc]
+15.3 +12.0 81 +15 +15 тепло 1009.0 986.3
06 14.06 штиль 0 10 км 9/0
[As op]
+19.3 +13.7 70 +21 +23 комфорт 1009.4 987.0 +15.1
09 14.06 СЗ 3 10 км 9/4 1000 м
[Cu med, cong As op]
+22.0 +12.4 54 +24 +27 комфорт 1010.0 987.8
12 14.06 В 1 10 км {ливн. осадки} 9/6 1000 м
[Sc As op]
+20.6 +12.1 58 +24 +27 комфорт 1010.4 988.2
15 14.06 штиль 0 10 км 9/6 1000 м
[Sc As op]
+21.3 +11.2 53 +23 +24 комфорт 1010.1 987.9
18 14.06 СВ 3 10 км 6/1 1000 м
[Sc Ac trans Ci fib]
+19.4 +14.4 73 +21 +21 комфорт 1010.9 988.5 +22.8 0.0
21 14.06 СВ 2 10 км ясно +15.4 +13.5 88 +15 +15 по сезону 1012.0 989.3
00 15.06 С 2 10 км 10/0
[Ac trans Ci fib]
+13.9 +12.5 91 +13 +13 по сезону 1012.4 989.5
03 15.06 С 3 10 км 9/9 600 м
[Cb calv]
+13.1 +12.2 94 +12 +12 по сезону 1012.3 989.4
06 15.06 СВ 4 10 км 10/10 600 м
[Cb calv]
+16.3 +12.8 80 +16 +16 тепло 1012.5 989.8 +12.5
09 15.06 С 3 10 км 8/8 600 м
[Cb calv]
+19.9 +12.9 64 +22 +25 комфорт 1012.8 990.4
12 15.06 С 5 14 км 10/8 600 м
[Cb calv Ac As]
+20.0 +12.5 62 +22 +22 комфорт 1013.0 990.6
15 15.06 СВ 4 13 км 8/5 600 м
[Sc Ac As]
+19.7 +11.4 59 +21 +22 комфорт 1013.7 991.3
18 15.06 СВ 3 10 км 8/0
[Ac und]
+16.8 +12.4 75 +17 +17 по сезону 1014.6 991.9 +22.7
21 15.06 С 2 10 км 8/8 600 м
[Cb calv]
+15.8 +12.5 81 +16 +16 тепло 1015.1 992.3
00 16.06 СЗ 2 10 км 8/8 600 м
[Sc]
+13.6 +12.4 92 +13 +13 по сезону 1015.5 992.5
03 16.06 СЗ 4 10 км 5/0
[Ac und]
+12.8 +11.4 91 +11 +11 по сезону 1015.3 992.3
06 16.06 С 5 10 км 9/6 600 м
[Sc Ac und]
+16.3 +12.0 76 +15 +16 по сезону 1015.9 993.2 +12.2
09 16.06 С 4
{10}
10 км 9/8 600 м
[Sc Ac und]
+18.1 +11.0 63 +18 +19 по сезону 1015.8 993.2
12 16.06 С 4 10 км 8/8 1000 м
[Cu med, cong]
+22.2 +10.4 47 +24 +26 комфорт 1015.2 993.0
15 16.06 СВ 5 10 км 4/4 1000 м
[Cu med, cong]
+22.7 +10.6 46 +25 +26 комфорт 1014.9 992.7
18 16.06 СВ 5 10 км ясно +17.7 +11.9 69 +17 +17 по сезону 1016.0 993.4 +23.5
21 16.06 СВ 1 10 км ясно +13.8 +11.2 84 +14 +14 по сезону 1017.1 994.1
00 17.06 С 1 10 км 3/0
[Ci fib]
+10.3 +9.8 97 +10 +10 по сезону 1017.5 994.2
03 17.06 штиль 0 200 м туман 6/0
[Ci fib]
+8.6 +8.2 97 +8 +8 холодно 1018.1 994.6
06 17.06 СВ 2 10 км {туман} 8/0
[Ci fib]
+17.5 +11.3 67 +18 +24 тепло 1016.9 994.2 +8.2
09 17.06 СВ 3 10 км 10/1 1000 м
[Cu hum Ci fib]
+21.3 +11.1 52 +23 +33 комфорт 1016.8 994.5
12 17.06 С 4 10 км 10/3 1000 м
[Cu hum Ci fib]
+25.2 +9.7 38 +26 +32 жарко 1015.5 993.5
15 17.06 СВ 2 10 км 10/0
[Ac trans Ci fib]
+24.5 +9.5 39 +25 +28 комфорт 1014.5 992.5
18 17.06 В 2 10 км 10/0
[Ac As Ci fib]
+23.6 +10.3 43 +25 +25 комфорт 1014.7 992.6 +26.0
21 17.06 ЮВ 1 10 км 10/0
[Ac trans Ci fib]
+19.0 +10.7 59 +21 +21 комфорт 1016.0 993.5
00 18.06 штиль 0 10 км 10/0
[Ac trans Ci fib]
+16.8 +12.4 75 +17 +17 тепло 1016.4 993.7
03 18.06 штиль 0 10 км 9/6 1000 м
[Sc Ac trans]
+16.4 +13.1 81 +16 +16 тепло 1016.4 993.6
06 18.06 ЮВ 2 10 км 8/0
[Ac trans]
+21.4 +11.1 52 +23 +27 комфорт 1016.7 994.4 +16.4
09 18.06 Ю 2 10 км 8/0
[Ac trans]
+25.9 +9.8 36 +27 +35 жарко 1016.1 994.2
12 18.06 С 1 10 км 8/0 1000 м
[Ac trans]
+26.6 +9.7 35 +27 +38 жарко 1015.6 993.8
15 18.06 С 2 10 км 8/6 1000 м
[Cu med, cong Ac trans]
+26.5 +11.3 39 +28 +29 жарко 1014.8 993.0
18 18.06 С 1 10 км 10/8 600 м
[Cb calv Ac und]
+24.6 +11.9 45 +26 +26 жарко 1015.6 993.6 +29.2
21 18.06 СЗ 2 10 км 5/5 1000 м
[Sc]
+21.3 +13.5 61 +24 +24 комфорт 1016.4 994.1
00 19.06 СЗ 1 10 км 9/9 1000 м
[Sc]
+17.8 +13.4 75 +19 +19 тепло 1016.5 993.9
03 19.06 СЗ 1 10 км 10/10 600 м
[Cb calv]
+18.6 +13.5 72 +20 +20 тепло 1017.0 994.4
06 19.06 В 1 10 км {ливн. осадки} 8/8 1000 м
[Sc]
+20.3 +15.3 73 +24 +26 комфорт 1017.3 994.9 +17.2 0.0
09 19.06 З 3 10 км 5/5 1000 м
[Cu hum]
+25.6 +13.5 47 +28 +34 жарко 1016.2 994.3
12 19.06 СЗ 4 10 км 9/9 1000 м
[Cu hum]
+26.5 +12.5 42 +28 +29 жарко 1015.4 993.6
15 19.06 З 5
{11}
10 км 6/6 1000 м
[Cu med, cong]
+27.0 +8.5 31 +27 +28 жарко 1014.5 992.7
18 19.06 З 3
{10}
10 км 9/8 600 м
[Sc Ci fib]
+23.7 +8.8 39 +24 +24 комфорт 1015.7 993.6 +28.5
21 19.06 З 2 10 км 6/0
[Ci fib]
+19.5 +10.1 55 +21 +21 комфорт 1017.1 994.6
00 20.06 СЗ 3 10 км 8/8 1000 м
[Sc]
+18.0 +11.5 66 +18 +18 тепло 1018.8 996.1
03 20.06 ЮЗ 1 10 км 4/4 1000 м
[Sc]
+15.1 +11.0 76 +16 +16 тепло 1019.6 996.7
06 20.06 З 6-10
{10}
10 км 6/6 1000 м
[Cu med, cong]
+20.1 +10.5 54 +21 +22 комфорт 1019.6 997.1 +14.9
09 20.06 З 6
{12}
10 км ясно +23.5 +6.4 33 +24 +30 комфорт 1018.7 996.5
12 20.06 З 6-11
{13}
10 км ясно +26.1 +1.6 20 +25 +30 комфорт 1017.4 995.5
15 20.06 З 5
{14}
10 км ясно +26.6 +4.4 24 +26 +28 жарко 1016.9 995.0
18 20.06 З 2
{11}
10 км ясно +24.0 +4.9 29 +24 +24 комфорт 1016.5 994.4 +27.6
21 20.06 штиль 0 10 км ясно +16.9 +6.1 49 +17 +17 тепло 1017.9 995.2
00 21.06 штиль 0 10 км ясно +13.4 +8.8 74 +13 +13 по сезону 1017.8 994.8

 

Местоположение метеостанции Барановичи (Брестская область, Беларусь): широта 53.13 долгота 25.97 высота над уровнем моря 193 м.

В архиве по умолчанию представлена погода в Барановичах за последнюю неделю. Архивные данные за месяц целиком и за предыдущие месяцы, начиная с января 2011 года, Вы можете получить, выбрав интересующий диапазон дат из раскрывающегося списка и нажав кнопку "Ввод!".


*Определитесь, кто Вы:
робот инопланетянин человек

Внимание! Время в таблицах - всемирное. Для получения местного времени необходимо прибавить поправку, которая в Барановичах равна 3 ч.

Смотрите также архив погоды в соседних городах и на ближайших метеорологических станциях:

Погода в Ганцевичах (Брестская область, Беларусь) (53 км)
Погода в Новогрудке (Гродненская область, Беларусь) (53 км)
Погода в Ивацевичах (Брестская область, Беларусь) (63 км)
Погода в Столбцах (Минская область, Беларусь) (64 км)
Погода в Лиде (Гродненская область, Беларусь) (96 км)
Погода в Волковыске (Гродненская область, Беларусь) (101 км)
Погода в Полесской (Брестская область, Беларусь) (105 км)
Погода в Слуцке (Минская область, Беларусь) (106 км)
Погода в Пинске (Брестская область, Беларусь) (113 км)
Погода в Воложине (Минская область, Беларусь) (113 км)

Пояснения к столбцам:

Ветер - указаны скорость ветра в м/с - средняя за 10 мин, порывы в срок и между сроками (в фигурных скобках) и направление, откуда дует ветер: С - северный, СВ - северо-восточный, В - восточный, ЮВ - юго-восточный, Ю - южный, ЮЗ - юго-западный, З - западный, СЗ - северо-западный.
Видимость - горизонтальная дальность видимости в метрах или километрах. При видимости от 1 до 10 км при отсутствии осадков обычно наблюдается дымка, при ухудшении видимости до 1 км и менее - туман. В сухую погоду видимость может ухудшаться дымом, пылью или мглою.
Явления - указаны атмосферные явления, наблюдавшиеся в срок или в последний час перед сроком; фигурными скобками обозначены явления, наблюдавшиеся между сроками (за 1-3 часа до срока); квадратными скобками обозначены град или гололедные отложения с указанием их диаметра в мм.
Облачность - указаны через наклонную черту общая и нижняя облачность в баллах и высота нижней границы облаков в метрах; квадратными скобками обозначены формы облаков: Ci - перистые, Cs - перисто-слоистые, Cc - перисто-кучевые, Ac - высококучевые, As - высокослоистые, Sc - слоисто-кучевые, Ns - слоисто-дождевые, Cu - кучевые, Cb - кучево-дождевые. Подробнее классификацию облаков см. в Атласе облаков (PDF).
T - Температура воздуха - температура, измеренная на высоте 2 м над землей.
Td - Температура точки росы - температура, при понижении до которой содержащийся в воздухе водяной пар достигнет насыщения.
f - Относительная влажность воздуха - влажноcть воздуха, измеренная на высоте 2 м над землей.
Te - Эффективная температура - температура, которую ощущает одетый по сезону человек в тени. Характеристика душности погоды. При расчете учитывается влияние влажности воздуха и скорости ветра на теплоощущения человека.
Tes - Эффективная температура на солнце - температура, которую ощущает человек, с поправкой на солнечный нагрев. Характеристика знойности погоды. Зависит от высоты солнца над горизонтом, облачности и скорости ветра. Ночью, в пасмурную погоду, а также при ветре 12 м/с и более поправка равна нулю.
P - Атмосферное давление - приведенное к уровню моря атмосферное давление.
Po - Атмосферное давление - измеренное на уровне метеостанции атмосферное давление.
Tmin - Минимальная температура - минимум температуры воздуха на высоте 2 м над землей.
Tmax - Максимальная температура - максимум температуры воздуха на высоте 2 м над землей.
R - Количество осадков - Количество выпавших осадков за период времени, мм. При наведении курсора мыши на число - период времени, за который выпало указанное количество осадков.
R24 - Количество осадков - Количество выпавших осадков за 24 часа, мм.
S - Снежный покров - Высота снежного покрова, см. При наведении курсора мыши на число - состояние снежного покрова и степень покрытия местности в баллах.